DW2849 Weather Reports


Display with metric or nautical units.
time (UTC)temp
F
wind
direction
speed
MPH
gust
MPH
rain 1hr
in
rain 24hr
in
rain mn
in
humidity
%
barometer
mb
20260507081402 49 45 2.0 2.0 0.00 0.00 0.00 87 1017.9
20260507080702 49 45 2.0 2.0 0.00 0.00 0.00 87 1017.9
20260507075811 49 45 2.0 3.0 0.00 0.00 0.00 87 1017.9
20260507075111 50 45 2.0 3.0 0.00 0.00 0.00 87 1018.0
20260507074411 50 45 2.0 2.0 0.00 0.00 0.00 87 1018.0
20260507073712 50 45 2.0 3.0 0.00 0.00 0.00 87 1017.9
20260507073011 51 45 2.0 2.0 0.00 0.00 0.00 87 1018.0
20260507072119 51 45 2.0 2.0 0.00 0.00 0.00 87 1017.9
20260507071420 51 0 2.0 2.0 0.00 0.00 0.00 87 1017.9
20260507070720 51 0 1.0 2.0 0.00 0.00 0.00 86 1017.8
20260507070019 51 0 1.0 2.0 0.00 0.00 0.00 86 1017.8
20260507065320 51 0 0.0 0.0 0.00 0.00 0.00 87 1017.8
20260507064428 51 0 0.0 0.0 0.00 0.00 0.00 87 1017.7
20260507063728 50 0 0.0 0.0 0.00 0.00 0.00 87 1017.7
20260507063028 50 0 0.0 0.0 0.00 0.00 0.00 87 1017.7
20260507062328 50 0 0.0 0.0 0.00 0.00 0.00 87 1017.6
20260507061628 50 338 0.0 0.0 0.00 0.00 0.00 87 1017.6
20260507060737 50 0 0.0 0.0 0.00 0.00 0.00 87 1017.6
20260507060037 50 0 0.0 1.0 0.00 0.00 0.00 87 1017.6
20260507055337 50 0 0.0 2.0 0.00 0.00 0.00 87 1017.6
20260507054637 50 0 1.0 2.0 0.00 0.00 0.00 87 1017.6
20260507053937 50 270 0.0 2.0 0.00 0.00 0.00 87 1017.6
20260507053045 50 270 2.0 3.0 0.00 0.00 0.00 87 1017.6
20260507052346 50 315 1.0 3.0 0.00 0.00 0.00 87 1017.6
20260507051646 50 285 2.0 3.0 0.00 0.00 0.00 87 1017.6
20260507050945 50 292 2.0 3.0 0.00 0.00 0.00 87 1017.6
20260507050245 50 292 3.0 4.0 0.00 0.00 0.00 87 1017.6
20260507045354 50 270 3.0 4.0 0.00 0.00 0.00 87 1017.7
20260507044654 51 270 3.0 4.0 0.00 0.00 0.00 87 1017.7
20260507043954 51 287 3.0 4.0 0.00 0.00 0.00 86 1017.6
20260507043254 51 270 3.0 4.0 0.00 0.00 0.00 86 1017.6
20260507042554 51 270 3.0 4.0 0.00 0.00 0.00 86 1017.6
20260507041703 51 284 3.0 4.0 0.00 0.00 0.00 86 1017.5
20260507041003 52 298 3.0 6.0 0.00 0.00 0.00 85 1017.6
20260507040303 52 270 4.0 6.0 0.00 0.00 0.00 85 1017.7
20260507035603 52 267 4.0 6.0 0.00 0.00 0.00 85 1017.7
20260507034903 52 242 3.0 4.0 0.00 0.00 0.00 85 1017.7
20260507034011 52 242 3.0 4.0 0.00 0.00 0.00 85 1017.7
20260507033312 53 256 2.0 4.0 0.00 0.00 0.00 85 1017.6
20260507032611 53 228 3.0 5.0 0.00 0.00 0.00 84 1017.7
20260507031911 53 250 3.0 4.0 0.00 0.00 0.00 84 1017.7
20260507031211 54 245 2.0 4.0 0.00 0.00 0.00 84 1017.7
20260507030320 54 228 2.0 9.0 0.00 0.00 0.00 84 1017.6
20260507025620 54 225 3.0 9.0 0.00 0.00 0.00 83 1017.6
20260507024920 55 241 2.0 6.0 0.00 0.00 0.00 83 1017.6
20260507024220 55 225 3.0 6.0 0.00 0.00 0.00 82 1017.6
20260507023520 56 239 3.0 5.0 0.00 0.00 0.00 82 1017.6
20260507022628 56 222 3.0 9.0 0.00 0.00 0.00 81 1017.5
20260507021929 56 259 3.0 9.0 0.00 0.00 0.00 81 1017.5
20260507021229 57 250 4.0 9.0 0.00 0.00 0.00 80 1017.5
20260507020529 56 225 3.0 5.0 0.00 0.00 0.00 81 1017.5
20260507015829 56 250 4.0 6.0 0.00 0.00 0.00 81 1017.6
20260507014937 57 242 3.0 8.0 0.00 0.00 0.00 81 1017.7
20260507014237 57 250 2.0 12.0 0.00 0.00 0.00 81 1017.8
20260507013539 57 233 4.0 12.0 0.00 0.00 0.00 80 1017.8
20260507012840 57 225 4.0 6.0 0.00 0.00 0.00 80 1017.9
20260507012137 58 270 4.0 7.0 0.00 0.00 0.00 79 1017.9
20260507011246 58 259 4.0 8.0 0.00 0.00 0.00 80 1018.0
20260507010546 58 264 3.0 9.0 0.00 0.00 0.00 79 1018.0
20260507005846 58 211 4.0 6.0 0.00 0.00 0.00 79 1018.0
20260507005146 58 267 3.0 9.0 0.00 0.00 0.00 80 1018.1
20260507004446 58 262 5.0 9.0 0.00 0.00 0.00 79 1018.1
20260507003554 58 295 3.0 6.0 0.00 0.00 0.00 79 1018.0
20260507002855 58 273 4.0 6.0 0.00 0.00 0.00 79 1018.0
20260507002155 58 278 4.0 9.0 0.00 0.00 0.00 79 1018.0
20260507001455 59 284 4.0 8.0 0.00 0.00 0.00 79 1018.0
20260507000603 59 276 4.0 7.0 0.00 0.00 0.00 79 1018.1
20260506235903 59 283 4.0 6.0 0.00 0.00 0.00 79 1018.0
20260506235205 59 284 3.0 7.0 0.00 0.00 0.00 79 1018.1
20260506234504 60 231 4.0 7.0 0.00 0.00 0.00 78 1018.1
20260506233803 61 225 3.0 6.0 0.00 0.00 0.00 78 1018.1
20260506232912 61 287 4.0 8.0 0.00 0.00 0.00 77 1018.2
20260506232212 61 244 4.0 6.0 0.00 0.00 0.00 77 1018.2
20260506231512 62 241 3.0 8.0 0.00 0.00 0.00 77 1018.4
20260506230812 62 231 4.0 7.0 0.00 0.00 0.00 76 1018.5
20260506230112 63 288 3.0 6.0 0.00 0.00 0.00 76 1018.6
20260506225412 63 267 3.0 6.0 0.00 0.00 0.00 76 1018.6
20260506224712 64 257 4.0 6.0 0.00 0.00 0.00 75 1018.7
20260506223822 64 285 4.0 8.0 0.00 0.00 0.00 75 1018.8
20260506223120 65 280 3.0 6.0 0.00 0.00 0.00 74 1018.8
20260506222421 65 225 3.0 5.0 0.00 0.00 0.00 74 1018.9
20260506221720 65 219 3.0 9.0 0.00 0.00 0.00 75 1019.0
20260506221020 65 265 5.0 9.0 0.00 0.00 0.00 74 1019.1
20260506220320 66 236 3.0 6.0 0.00 0.00 0.00 74 1019.2
20260506215429 65 195 3.0 5.0 0.00 0.00 0.00 74 1019.2
20260506214729 65 215 3.0 6.0 0.00 0.00 0.00 74 1019.2
20260506214029 65 228 3.0 6.0 0.00 0.00 0.00 75 1019.2
20260506213138 66 197 3.0 5.0 0.00 0.00 0.00 74 1019.2
20260506212438 65 262 3.0 4.0 0.00 0.00 0.00 75 1019.3
20260506211737 65 220 3.0 4.0 0.00 0.00 0.00 74 1019.4
20260506211037 65 208 2.0 5.0 0.00 0.00 0.00 74 1019.3
20260506210338 65 225 2.0 5.0 0.00 0.00 0.00 74 1019.4
20260506205446 65 212 3.0 5.0 0.00 0.00 0.00 75 1019.3
20260506204748 65 217 3.0 6.0 0.00 0.00 0.00 75 1019.4
20260506204046 65 210 4.0 6.0 0.00 0.00 0.00 75 1019.5
20260506203346 65 252 3.0 6.0 0.00 0.00 0.00 75 1019.6
20260506202646 65 212 4.0 6.0 0.00 0.00 0.00 75 1019.7
20260506201946 66 236 2.0 6.0 0.00 0.00 0.00 75 1019.7
20260506201246 65 197 3.0 5.0 0.00 0.00 0.00 75 1019.6
20260506200355 65 210 3.0 4.0 0.00 0.00 0.00 75 1019.6
20260506195655 65 200 2.0 5.0 0.00 0.00 0.00 75 1019.7
20260506194955 65 212 4.0 6.0 0.00 0.00 0.00 75 1019.7
20260506194255 65 197 2.0 4.0 0.00 0.00 0.00 75 1019.8
20260506193403 64 219 3.0 7.0 0.00 0.00 0.00 75 1019.9
20260506192512 64 217 3.0 5.0 0.00 0.00 0.00 76 1020.0
20260506191812 64 210 3.0 6.0 0.00 0.00 0.00 77 1020.1
20260506191112 64 240 3.0 6.0 0.00 0.00 0.00 75 1020.1
20260506190412 64 212 2.0 6.0 0.00 0.00 0.00 76 1020.1
20260506185713 64 239 3.0 5.0 0.00 0.00 0.00 76 1020.1
20260506185012 64 230 4.0 5.0 0.00 0.00 0.00 76 1020.0
20260506184312 63 190 2.0 5.0 0.00 0.00 0.00 77 1020.1
20260506183612 63 232 3.0 5.0 0.00 0.00 0.00 77 1020.2
20260506182721 62 158 3.0 5.0 0.00 0.00 0.00 79 1020.2
20260506182021 61 152 1.0 4.0 0.00 0.00 0.00 79 1020.0
20260506181321 61 245 1.0 4.0 0.00 0.00 0.00 80 1020.0
20260506180429 62 8 1.0 3.0 0.00 0.00 0.00 79 1019.9
20260506175729 62 215 1.0 4.0 0.00 0.00 0.00 78 1019.8
20260506175030 62 188 1.0 4.0 0.00 0.00 0.00 78 1019.9
20260506174330 61 192 2.0 3.0 0.00 0.00 0.00 79 1019.8
20260506173630 60 177 1.0 2.0 0.00 0.00 0.00 79 1019.9
20260506172929 60 168 2.0 3.0 0.00 0.00 0.00 80 1019.9
20260506172038 60 256 0.0 2.0 0.00 0.00 0.00 80 1019.9
20260506171338 61 135 2.0 4.0 0.00 0.00 0.00 79 1019.9
20260506170638 60 160 2.0 3.0 0.00 0.00 0.00 79 1019.8
20260506165757 60 0 1.0 4.0 0.00 0.00 0.00 80 1019.9
20260506165056 60 172 1.0 2.0 0.00 0.00 0.00 80 1019.9
20260506164357 58 165 1.0 3.0 0.00 0.00 0.00 81 1019.9
20260506163505 57 112 2.0 3.0 0.00 0.00 0.00 83 1019.9
20260506162806 58 202 1.0 3.0 0.00 0.00 0.00 81 1019.9
20260506162106 58 185 1.0 3.0 0.00 0.00 0.00 82 1019.9
20260506161405 57 186 0.0 2.0 0.00 0.00 0.00 82 1019.9
20260506160705 57 140 1.0 3.0 0.00 0.00 0.00 82 1019.9
20260506160006 56 245 0.0 1.0 0.00 0.00 0.00 83 1019.9
20260506155114 56 315 0.0 2.0 0.00 0.00 0.00 83 1019.8
20260506154414 55 30 0.0 2.0 0.00 0.00 0.00 84 1019.8
20260506153714 55 90 1.0 2.0 0.00 0.00 0.00 84 1019.7
20260506153014 55 315 0.0 0.0 0.00 0.00 0.00 84 1019.6
20260506152122 54 315 0.0 1.0 0.00 0.00 0.00 84 1019.6
20260506151423 54 315 0.0 0.0 0.00 0.00 0.00 85 1019.7
20260506150722 54 315 0.0 0.0 0.00 0.00 0.00 85 1019.7
20260506150023 53 315 0.0 0.0 0.00 0.00 0.00 86 1019.7
20260506145323 53 315 0.0 0.0 0.00 0.00 0.00 86 1019.6
20260506144623 53 315 0.0 1.0 0.00 0.00 0.00 86 1019.6
20260506143731 52 315 0.0 1.0 0.00 0.00 0.00 87 1019.6
20260506143031 52 315 0.0 2.0 0.00 0.00 0.00 87 1019.4
20260506142331 52 270 0.0 2.0 0.00 0.00 0.00 87 1019.4
20260506141631 52 0 0.0 0.0 0.00 0.00 0.00 87 1019.4
20260506140931 52 0 0.0 2.0 0.00 0.00 0.00 87 1019.3
20260506140231 52 315 0.0 0.0 0.00 0.00 0.00 87 1019.3
20260506135148 51 0 0.0 0.0 0.00 0.00 0.00 87 1019.2
20260506134448 51 45 0.0 0.0 0.00 0.00 0.00 87 1019.2
20260506133749 51 55 0.0 0.0 0.00 0.00 0.00 87 1019.2
20260506133049 51 158 0.0 0.0 0.00 0.00 0.00 87 1019.1
20260506132350 51 315 0.0 0.0 0.00 0.00 0.00 87 1019.1
20260506131649 51 315 0.0 0.0 0.00 0.00 0.00 87 1019.0
20260506130948 51 315 0.0 0.0 0.00 0.00 0.00 87 1019.0
20260506130057 51 315 0.0 0.0 0.00 0.00 0.00 87 1018.9
20260506125357 51 315 0.0 0.0 0.00 0.00 0.00 87 1018.8
20260506124657 51 315 0.0 0.0 0.00 0.00 0.00 87 1018.7
20260506123957 51 315 0.0 0.0 0.00 0.00 0.00 87 1018.7
20260506123257 51 315 0.0 0.0 0.00 0.00 0.00 87 1018.7
20260506122406 51 315 0.0 0.0 0.00 0.00 0.00 87 1018.7
20260506121706 51 315 0.0 0.0 0.00 0.00 0.00 87 1018.7
20260506121006 51 315 0.0 0.0 0.00 0.00 0.00 87 1018.6
20260506120306 51 315 0.0 0.0 0.00 0.00 0.00 87 1018.6
20260506115606 51 315 0.0 0.0 0.00 0.00 0.00 87 1018.6
20260506114906 51 270 0.0 1.0 0.00 0.00 0.00 87 1018.6
20260506114206 51 270 0.0 1.0 0.00 0.00 0.00 88 1018.5
20260506113315 51 267 0.0 1.0 0.00 0.00 0.00 87 1018.5
20260506112615 51 270 0.0 3.0 0.00 0.00 0.00 88 1018.5
20260506111915 51 270 0.0 0.0 0.00 0.00 0.00 88 1018.4
20260506111215 51 315 0.0 0.0 0.00 0.00 0.00 87 1018.4
20260506110514 51 270 0.0 0.0 0.00 0.00 0.00 88 1018.3
20260506105624 51 270 0.0 0.0 0.00 0.00 0.00 88 1018.2
20260506104923 51 270 0.0 0.0 0.00 0.00 0.00 88 1018.2
20260506104223 51 270 0.0 0.0 0.00 0.00 0.00 88 1018.2
20260506103332 51 270 0.0 0.0 0.00 0.00 0.00 88 1018.1
20260506102632 51 270 0.0 1.0 0.00 0.00 0.00 88 1018.1
20260506101932 51 231 0.0 1.0 0.00 0.00 0.00 88 1018.0
20260506101232 50 332 0.0 0.0 0.00 0.00 0.00 88 1017.9
20260506100532 51 0 0.0 0.0 0.00 0.00 0.00 88 1017.9
20260506095641 50 0 0.0 0.0 0.00 0.00 0.00 88 1017.8
20260506094940 51 0 0.0 0.0 0.00 0.00 0.00 87 1017.8
20260506094242 51 0 0.0 0.0 0.00 0.00 0.00 87 1017.8
20260506093349 50 0 0.0 0.0 0.00 0.01 0.00 87 1017.8
20260506092649 50 0 0.0 0.0 0.00 0.01 0.00 87 1017.9
20260506091949 51 0 0.0 0.0 0.00 0.01 0.00 87 1018.0
20260506091249 50 0 0.0 2.0 0.00 0.01 0.00 87 1017.9
20260506090549 50 0 1.0 2.0 0.00 0.01 0.00 88 1018.0
20260506085849 50 309 0.0 0.0 0.00 0.01 0.00 88 1017.9
20260506084958 50 289 0.0 0.0 0.00 0.02 0.00 88 1017.9
20260506084258 50 270 0.0 2.0 0.00 0.02 0.00 88 1018.0
20260506083557 50 270 1.0 2.0 0.00 0.02 0.00 88 1018.0
20260506082857 50 256 1.0 3.0 0.00 0.02 0.00 88 1018.0